TAP27PS LPPR-LPPT

Flight info

Callsign TAP27PS
Flight time 0h 48m
Altitude 37000
Route MANIK DCT ABRIL DCT XAMAX
Aircraft A320/M-SDE3FGHIRWY/LB1

Departure

Time 2026-05-07 17:30
Airport Francisco de Sá Carneiro Airport (LPPR)

Arrival

Time 2026-05-07 18:19
Airport Lisbon Humberto Delgado Airport (LPPT)
Time Latitude Longitude Altitude Speed Heading
2026-05-07 17:04 41.23794 -8.67363 244 ft 0 kts 49°
2026-05-07 17:18 41.23791 -8.67368 244 ft 3 kts 50°
2026-05-07 17:18 41.23777 -8.67397 242 ft 4 kts 69°
2026-05-07 17:18 41.23771 -8.67431 240 ft 4 kts 98°
2026-05-07 17:18 41.23780 -8.67460 239 ft 4 kts 147°
2026-05-07 17:19 41.23789 -8.67466 239 ft 0 kts 169°
2026-05-07 17:25 41.23781 -8.67464 239 ft 2 kts 168°
2026-05-07 17:25 41.23759 -8.67459 239 ft 7 kts 169°
2026-05-07 17:25 41.23707 -8.67446 238 ft 7 kts 169°
2026-05-07 17:26 41.23659 -8.67434 238 ft 7 kts 169°
2026-05-07 17:26 41.23614 -8.67422 238 ft 6 kts 167°
2026-05-07 17:26 41.23573 -8.67410 238 ft 5 kts 168°
2026-05-07 17:26 41.23545 -8.67402 239 ft 3 kts 169°
2026-05-07 17:27 41.23527 -8.67398 239 ft 2 kts 169°
2026-05-07 17:27 41.23490 -8.67389 240 ft 12 kts 168°
2026-05-07 17:27 41.23408 -8.67367 239 ft 12 kts 169°
2026-05-07 17:27 41.23337 -8.67404 237 ft 13 kts 246°
2026-05-07 17:28 41.23321 -8.67508 236 ft 11 kts 259°
2026-05-07 17:28 41.23310 -8.67585 237 ft 4 kts 258°
2026-05-07 17:28 41.23306 -8.67612 237 ft 3 kts 258°
2026-05-07 17:28 41.23300 -8.67652 236 ft 5 kts 258°
2026-05-07 17:29 41.23288 -8.67698 238 ft 4 kts 251°
2026-05-07 17:29 41.23292 -8.67727 238 ft 2 kts 321°
2026-05-07 17:29 41.23350 -8.67744 238 ft 22 kts 349°
2026-05-07 17:29 41.23738 -8.67846 227 ft 95 kts 349°
2026-05-07 17:30 41.24607 -8.68074 212 ft 156 kts 348°
2026-05-07 17:30 41.25715 -8.68373 795 ft 164 kts 347°
2026-05-07 17:30 41.26854 -8.68685 1598 ft 173 kts 345°
2026-05-07 17:30 41.28104 -8.69014 2069 ft 194 kts 344°
2026-05-07 17:31 41.29516 -8.69387 2496 ft 220 kts 345°
2026-05-07 17:31 41.31045 -8.69786 3295 ft 229 kts 346°
2026-05-07 17:31 41.32622 -8.70192 4287 ft 234 kts 347°
2026-05-07 17:31 41.34247 -8.70613 5158 ft 242 kts 346°
2026-05-07 17:32 41.35920 -8.71049 6019 ft 249 kts 346°
2026-05-07 17:32 41.37644 -8.71500 6834 ft 255 kts 346°
2026-05-07 17:32 41.39310 -8.72292 7701 ft 255 kts 325°
2026-05-07 17:32 41.40237 -8.73246 8284 ft 254 kts 310°
2026-05-07 17:33 41.41421 -8.75907 9484 ft 250 kts 281°
2026-05-07 17:33 41.41587 -8.78192 10319 ft 248 kts 259°
2026-05-07 17:33 41.41172 -8.80370 11128 ft 246 kts 242°
2026-05-07 17:33 41.40251 -8.82301 11879 ft 251 kts 225°
2026-05-07 17:34 41.38841 -8.83786 12310 ft 270 kts 206°
2026-05-07 17:34 41.36984 -8.84552 12640 ft 292 kts 185°
2026-05-07 17:34 41.34880 -8.84345 12931 ft 316 kts 169°
2026-05-07 17:34 41.32643 -8.83745 13166 ft 340 kts 169°
2026-05-07 17:35 41.30262 -8.83096 13603 ft 355 kts 169°
2026-05-07 17:35 41.27821 -8.82433 14245 ft 361 kts 169°
2026-05-07 17:35 41.25341 -8.81767 14922 ft 366 kts 169°
2026-05-07 17:35 41.22866 -8.81109 15586 ft 370 kts 169°
2026-05-07 17:36 41.20325 -8.80436 16243 ft 375 kts 169°
2026-05-07 17:36 41.17749 -8.79754 16905 ft 379 kts 169°
2026-05-07 17:36 41.15147 -8.79068 17543 ft 384 kts 169°
2026-05-07 17:36 41.12512 -8.78384 18179 ft 388 kts 169°
2026-05-07 17:37 41.09808 -8.77726 18393 ft 402 kts 171°
2026-05-07 17:37 41.07008 -8.77083 18628 ft 414 kts 171°
2026-05-07 17:37 41.04139 -8.76445 18866 ft 421 kts 171°
2026-05-07 17:37 41.01235 -8.75802 19100 ft 425 kts 171°
2026-05-07 17:38 40.98314 -8.75149 19339 ft 427 kts 171°
2026-05-07 17:38 40.95383 -8.74485 19583 ft 428 kts 171°
2026-05-07 17:38 40.92438 -8.73812 19823 ft 430 kts 171°
2026-05-07 17:38 40.89486 -8.73137 20067 ft 432 kts 171°
2026-05-07 17:39 40.86557 -8.72469 20310 ft 434 kts 171°
2026-05-07 17:39 40.83579 -8.71789 20559 ft 435 kts 171°
2026-05-07 17:39 40.80582 -8.71102 20799 ft 439 kts 172°
2026-05-07 17:39 40.77572 -8.70412 21042 ft 440 kts 172°
2026-05-07 17:40 40.74549 -8.69722 21299 ft 441 kts 172°
2026-05-07 17:40 40.71514 -8.69031 21556 ft 443 kts 172°
2026-05-07 17:40 40.68467 -8.68336 21815 ft 445 kts 172°
2026-05-07 17:40 40.65406 -8.67637 22077 ft 448 kts 172°
2026-05-07 17:41 40.62331 -8.66938 22340 ft 450 kts 172°
2026-05-07 17:41 40.59239 -8.66236 22607 ft 451 kts 172°
2026-05-07 17:41 40.56142 -8.65532 22844 ft 453 kts 172°
2026-05-07 17:41 40.53071 -8.64837 22917 ft 453 kts 172°
2026-05-07 17:42 40.49962 -8.64138 22921 ft 453 kts 172°
2026-05-07 17:42 40.46850 -8.63436 22921 ft 453 kts 172°
2026-05-07 17:42 40.43745 -8.62736 22921 ft 453 kts 172°
2026-05-07 17:42 40.40642 -8.62036 22920 ft 453 kts 172°
2026-05-07 17:43 40.37537 -8.61336 22918 ft 453 kts 172°
2026-05-07 17:43 40.34426 -8.60633 22918 ft 453 kts 172°
2026-05-07 17:43 40.31319 -8.59930 22920 ft 453 kts 172°
2026-05-07 17:43 40.28214 -8.59230 22920 ft 453 kts 172°
2026-05-07 17:44 40.25151 -8.58544 22919 ft 453 kts 172°
2026-05-07 17:44 40.22049 -8.57851 22918 ft 453 kts 172°
2026-05-07 17:44 40.18938 -8.57156 22916 ft 453 kts 172°
2026-05-07 17:44 40.15835 -8.56465 22910 ft 453 kts 172°
2026-05-07 17:45 40.12734 -8.55775 22908 ft 452 kts 172°
2026-05-07 17:45 40.09640 -8.55085 22915 ft 448 kts 172°
2026-05-07 17:45 40.06588 -8.54400 22924 ft 444 kts 172°
2026-05-07 17:45 40.03548 -8.53729 22922 ft 442 kts 174°
2026-05-07 17:46 40.00530 -8.53397 22923 ft 440 kts 178°
2026-05-07 17:46 39.97544 -8.53151 22917 ft 419 kts 178°
2026-05-07 17:46 39.94699 -8.52912 22919 ft 403 kts 179°
2026-05-07 17:46 39.91928 -8.52682 22919 ft 396 kts 180°
2026-05-07 17:47 39.89189 -8.52458 22918 ft 393 kts 180°
2026-05-07 17:47 39.86461 -8.52233 22919 ft 392 kts 180°
2026-05-07 17:47 39.83743 -8.52007 22918 ft 392 kts 180°
2026-05-07 17:47 39.81023 -8.51785 22922 ft 391 kts 181°
2026-05-07 17:48 39.78361 -8.51884 22912 ft 384 kts 189°
2026-05-07 17:48 39.75804 -8.52490 22916 ft 362 kts 198°
2026-05-07 17:48 39.73488 -8.53503 22915 ft 342 kts 205°
2026-05-07 17:48 39.71398 -8.54852 22906 ft 331 kts 212°
2026-05-07 17:49 39.69443 -8.56394 22916 ft 328 kts 213°
2026-05-07 17:49 39.67488 -8.57932 22916 ft 328 kts 213°
2026-05-07 17:49 39.65540 -8.59460 22914 ft 328 kts 213°
2026-05-07 17:49 39.63590 -8.60989 22923 ft 327 kts 213°
2026-05-07 17:50 39.61666 -8.62497 22915 ft 328 kts 213°
2026-05-07 17:50 39.59714 -8.64029 22918 ft 328 kts 213°
2026-05-07 17:50 39.57767 -8.65560 22918 ft 328 kts 213°
2026-05-07 17:50 39.55820 -8.67091 22922 ft 327 kts 213°
2026-05-07 17:51 39.53872 -8.68622 22920 ft 327 kts 213°
2026-05-07 17:51 39.51922 -8.70153 22916 ft 327 kts 213°
2026-05-07 17:51 39.49976 -8.71677 22916 ft 327 kts 213°
2026-05-07 17:51 39.48029 -8.73201 22926 ft 327 kts 212°
2026-05-07 17:52 39.46109 -8.74701 22932 ft 326 kts 212°
2026-05-07 17:52 39.44169 -8.76214 22930 ft 326 kts 212°
2026-05-07 17:52 39.42229 -8.77725 22931 ft 325 kts 212°
2026-05-07 17:52 39.40364 -8.79370 22936 ft 324 kts 219°
2026-05-07 17:53 39.38683 -8.81310 22932 ft 324 kts 226°
2026-05-07 17:53 39.37108 -8.83385 22936 ft 323 kts 220°
2026-05-07 17:53 39.35344 -8.85188 22923 ft 324 kts 217°
2026-05-07 17:53 39.33521 -8.86896 22920 ft 324 kts 216°
2026-05-07 17:54 39.31676 -8.88566 22923 ft 324 kts 216°
2026-05-07 17:54 39.29828 -8.90231 22810 ft 324 kts 216°
2026-05-07 17:54 39.28010 -8.91881 22467 ft 323 kts 216°
2026-05-07 17:54 39.26192 -8.93555 22040 ft 320 kts 216°
2026-05-07 17:55 39.24391 -8.95231 21581 ft 318 kts 216°
2026-05-07 17:55 39.22602 -8.96903 21103 ft 317 kts 216°
2026-05-07 17:55 39.20821 -8.98571 20670 ft 316 kts 216°
2026-05-07 17:55 39.19049 -9.00229 20214 ft 314 kts 216°
2026-05-07 17:56 39.17280 -9.01885 19802 ft 314 kts 216°
2026-05-07 17:56 39.15540 -9.03513 19395 ft 313 kts 215°
2026-05-07 17:56 39.13781 -9.05153 18992 ft 312 kts 215°
2026-05-07 17:56 39.12021 -9.06795 18597 ft 311 kts 215°
2026-05-07 17:57 39.10270 -9.08429 18204 ft 311 kts 214°
2026-05-07 17:57 39.09113 -9.09509 17944 ft 310 kts 214°
2026-05-07 17:57 39.06802 -9.11665 17502 ft 304 kts 214°
2026-05-07 17:57 39.05094 -9.13253 17112 ft 302 kts 214°
2026-05-07 17:58 39.03394 -9.14831 16728 ft 301 kts 214°
2026-05-07 17:58 39.01703 -9.16402 16356 ft 299 kts 214°
2026-05-07 17:58 39.00041 -9.17945 15990 ft 298 kts 214°
2026-05-07 17:58 38.98365 -9.19503 15627 ft 297 kts 214°
2026-05-07 17:59 38.96693 -9.21056 15288 ft 295 kts 214°
2026-05-07 17:59 38.95029 -9.22599 14961 ft 294 kts 214°
2026-05-07 17:59 38.93371 -9.24136 14606 ft 294 kts 214°
2026-05-07 17:59 38.91718 -9.25668 14267 ft 293 kts 214°
2026-05-07 18:00 38.90069 -9.27194 13938 ft 292 kts 214°
2026-05-07 18:00 38.88421 -9.28714 13589 ft 291 kts 214°
2026-05-07 18:00 38.86782 -9.30227 13230 ft 290 kts 214°
2026-05-07 18:00 38.85171 -9.31711 12885 ft 288 kts 214°
2026-05-07 18:01 38.83552 -9.33200 12536 ft 286 kts 214°
2026-05-07 18:01 38.81942 -9.34682 12181 ft 284 kts 214°
2026-05-07 18:01 38.80336 -9.36162 11816 ft 283 kts 214°
2026-05-07 18:01 38.78745 -9.37629 11472 ft 281 kts 214°
2026-05-07 18:02 38.75589 -9.40534 10806 ft 277 kts 214°
2026-05-07 18:02 38.74025 -9.41974 10449 ft 276 kts 214°
2026-05-07 18:02 38.72466 -9.43408 10085 ft 276 kts 214°
2026-05-07 18:03 38.70933 -9.44817 9724 ft 274 kts 214°
2026-05-07 18:03 38.69390 -9.46235 9353 ft 272 kts 214°
2026-05-07 18:03 38.67855 -9.47646 8951 ft 271 kts 215°
2026-05-07 18:03 38.66328 -9.49048 8592 ft 269 kts 215°
2026-05-07 18:04 38.64797 -9.50448 8341 ft 270 kts 215°
2026-05-07 18:04 38.63282 -9.51834 8096 ft 265 kts 215°
2026-05-07 18:04 38.61817 -9.53174 7942 ft 253 kts 215°
2026-05-07 18:04 38.60400 -9.54381 7944 ft 238 kts 206°
2026-05-07 18:05 38.58851 -9.54981 7952 ft 236 kts 187°
2026-05-07 18:05 38.57209 -9.54866 7952 ft 238 kts 170°
2026-05-07 18:05 38.55578 -9.54448 7952 ft 239 kts 170°
2026-05-07 18:05 38.53947 -9.54030 7950 ft 240 kts 170°
2026-05-07 18:06 38.52315 -9.53613 7949 ft 239 kts 171°
2026-05-07 18:06 38.50688 -9.53193 7949 ft 239 kts 168°
2026-05-07 18:06 38.49143 -9.52406 7944 ft 242 kts 151°
2026-05-07 18:06 38.47734 -9.51212 7950 ft 243 kts 149°
2026-05-07 18:07 38.46326 -9.50012 7951 ft 243 kts 148°
2026-05-07 18:07 38.44919 -9.48817 7948 ft 243 kts 149°
2026-05-07 18:07 38.43532 -9.47639 7950 ft 242 kts 149°
2026-05-07 18:07 38.42148 -9.46416 7948 ft 244 kts 142°
2026-05-07 18:08 38.41014 -9.44807 7948 ft 246 kts 127°
2026-05-07 18:08 38.40067 -9.42993 7945 ft 245 kts 127°
2026-05-07 18:08 38.39115 -9.41187 7949 ft 245 kts 127°
2026-05-07 18:08 38.38164 -9.39387 7946 ft 244 kts 127°
2026-05-07 18:09 38.37216 -9.37593 7948 ft 244 kts 128°
2026-05-07 18:09 38.36356 -9.35721 7947 ft 247 kts 116°
2026-05-07 18:09 38.35898 -9.33624 7943 ft 250 kts 104°
2026-05-07 18:09 38.35693 -9.31423 7939 ft 253 kts 89°
2026-05-07 18:10 38.36168 -9.29280 7650 ft 255 kts 61°
2026-05-07 18:10 38.37370 -9.27635 7258 ft 257 kts 32°
2026-05-07 18:10 38.39031 -9.26863 6927 ft 255 kts
2026-05-07 18:10 38.40786 -9.26591 6587 ft 253 kts
2026-05-07 18:11 38.42522 -9.26324 6378 ft 247 kts
2026-05-07 18:11 38.43636 -9.26148 6301 ft 240 kts
2026-05-07 18:11 38.45787 -9.25805 6125 ft 230 kts
2026-05-07 18:11 38.47340 -9.25559 5989 ft 219 kts
2026-05-07 18:12 38.48817 -9.25325 5825 ft 210 kts
2026-05-07 18:12 38.50254 -9.25098 5591 ft 207 kts
2026-05-07 18:12 38.51664 -9.24873 5415 ft 202 kts
2026-05-07 18:12 38.53057 -9.24650 5136 ft 201 kts
2026-05-07 18:13 38.54444 -9.24432 4899 ft 200 kts
2026-05-07 18:13 38.55802 -9.24218 4660 ft 195 kts
2026-05-07 18:13 38.57147 -9.24006 4331 ft 193 kts
2026-05-07 18:13 38.58440 -9.23802 4148 ft 185 kts
2026-05-07 18:14 38.59671 -9.23518 3966 ft 181 kts 17°
2026-05-07 18:14 38.60813 -9.22859 3736 ft 179 kts 20°
2026-05-07 18:14 38.61940 -9.22239 3513 ft 174 kts 18°
2026-05-07 18:14 38.63041 -9.21647 3266 ft 168 kts 18°
2026-05-07 18:15 38.64088 -9.21086 3034 ft 159 kts 17°
2026-05-07 18:15 38.65097 -9.20547 2821 ft 155 kts 16°
2026-05-07 18:15 38.66081 -9.20023 2617 ft 151 kts 17°
2026-05-07 18:15 38.67041 -9.19513 2400 ft 149 kts 16°
2026-05-07 18:16 38.67674 -9.19178 2256 ft 148 kts 15°
2026-05-07 18:16 38.68619 -9.18673 2063 ft 148 kts 17°
2026-05-07 18:16 38.69579 -9.18163 1855 ft 149 kts 16°
2026-05-07 18:16 38.70835 -9.17491 1596 ft 146 kts 17°
2026-05-07 18:17 38.71773 -9.16991 1409 ft 146 kts 16°
2026-05-07 18:17 38.72713 -9.16488 1211 ft 148 kts 15°
2026-05-07 18:17 38.73348 -9.16152 1082 ft 150 kts 16°
2026-05-07 18:17 38.74299 -9.15642 883 ft 146 kts 17°
2026-05-07 18:18 38.75231 -9.15145 667 ft 145 kts 18°
2026-05-07 18:18 38.76155 -9.14651 485 ft 145 kts 17°
2026-05-07 18:18 38.77068 -9.14160 360 ft 134 kts 19°
2026-05-07 18:18 38.77796 -9.13772 368 ft 89 kts 22°
2026-05-07 18:19 38.78185 -9.13559 369 ft 36 kts 28°
2026-05-07 18:19 38.78324 -9.13417 364 ft 19 kts 46°
2026-05-07 18:19 38.78376 -9.13316 365 ft 6 kts 89°
2026-05-07 18:19 38.78362 -9.13277 363 ft 6 kts 128°
2026-05-07 18:20 38.78319 -9.13266 359 ft 7 kts 193°
2026-05-07 18:20 38.78271 -9.13289 364 ft 7 kts 201°
2026-05-07 18:20 38.78218 -9.13318 358 ft 11 kts 203°
2026-05-07 18:20 38.78121 -9.13369 363 ft 18 kts 203°
2026-05-07 18:21 38.78002 -9.13432 359 ft 19 kts 202°
2026-05-07 18:21 38.77885 -9.13494 359 ft 16 kts 197°
2026-05-07 18:21 38.77771 -9.13497 356 ft 17 kts 168°
2026-05-07 18:21 38.77645 -9.13463 350 ft 19 kts 167°
2026-05-07 18:22 38.77552 -9.13439 349 ft 10 kts 171°
2026-05-07 18:22 38.77506 -9.13428 348 ft 10 kts 168°
2026-05-07 18:22 38.77433 -9.13406 343 ft 6 kts 168°
2026-05-07 18:22 38.77413 -9.13401 342 ft 1 kts 168°
2026-05-07 18:24 38.77407 -9.13400 342 ft 3 kts 168°
2026-05-07 18:25 38.77367 -9.13388 344 ft 9 kts 164°
2026-05-07 18:25 38.77328 -9.13308 338 ft 14 kts 88°
2026-05-07 18:25 38.77271 -9.13243 335 ft 9 kts 170°
2026-05-07 18:25 38.77245 -9.13205 336 ft 5 kts 82°
2026-05-07 18:26 38.77252 -9.13166 335 ft 3 kts 78°
2026-05-07 18:26 38.77254 -9.13152 336 ft 1 kts 77°
2026-05-07 18:26 38.77255 -9.13149 336 ft 0 kts 77°